User: anonymous   Login
Location: Syracuse
(43.0480°N, 76.1480°W)
Time: 01:46:52
(UTC-05:00)
Language:

Cosmos 1140 Rocket - Orbit

View from above orbital plane
View from above orbital plane
View from above satellite
View from above satellite

Ground track
Ground track

The orbit data is extracted from the following two-line orbital elements,

1 11574U 79089B   16337.26190617  .00000062  00000-0  27600-4 0  9990
2 11574  74.0697 222.5271 0015973 181.7602 178.3501 14.40603468948781
Epoch (UTC): 02 December 2016 06:17:08
Eccentricity: 0.0015973
inclination: 74.0697°
perigee height: 745 km
apogee height: 768 km
right ascension of ascending node: 222.5271°
argument of perigee: 181.7602°
revolutions per day: 14.40603468
mean anomaly at epoch: 178.3501°
orbit number at epoch: 94878

The dashed part of the orbit path shows where the satellite is in the earth's shadow,  

DLR